Other Public Products
Issued by NWS Grand Forks, ND

Home | Current Version | Previous Version | Text Only | Print | Product List | Glossary Off
Versions: 1 2 3 4 5 6 7 8 9 10 11 12 13 14 15 16 17 18 19 20 21 22 23 24 25 26 27 28 29 30 31 32 33 34 35 36 37 38 39 40 41 42 43 44 45 46 47 48 49 50

000
FPUS83 KFGF 252331
OPUFGF
PRAIRIE TO PINES WEATHER ROUNDUP
NATIONAL WEATHER SERVICE EASTERN NORTH DAKOTA/GRAND FORKS ND
600 PM CDT MON JUL 25 2016

 **SATELLITE DATA USED TO AUGMENT SKY COVER AT AUTOMATED STATIONS**
 *****  WEATHER ACROSS EASTERN NORTH DAKOTA  *****

CITY           SKY/WX    TMP DP  RH WIND       PRES   REMARKS
GRAND FORKS    MOSUNNY   90  66  45 S7        29.91F HX  92
GRAND FORKS AF SUNNY     89  67  48 S7        29.92F HX  91
GRAND CITY NWS   N/A     88 N/A N/A S6          N/A
BUXTON           N/A     91  66  43 S10         N/A  HX  93
DEVILS LAKE    SUNNY     86  71  60 NE8       29.93S HX  91
FARGO          SUNNY     90  59  35 SW13      29.93F
WAHPETON ARPT  CLEAR     88  57  35 S13       29.96F
$$

 *****  WEATHER ACROSS CENTRAL AND WESTERN NORTH DAKOTA  *****

CITY           SKY/WX    TMP DP  RH WIND       PRES   REMARKS
JAMESTOWN      SUNNY     89  66  46 S12       29.92F HX  91
BISMARCK       SUNNY     94  61  33 N3        29.91F HX  94
MINOT          SUNNY     90  64  42 VRB5      29.94S HX  91
MINOT AFB      SUNNY     86  65  48 NE12      29.94R
GARRISON         N/A     89  64  43 NW6       29.94S HX  90
WILLISTON      SUNNY     91  53  27 N8        29.96S
DICKINSON      SUNNY     92  44  19 CALM      29.94F
HETTINGER      SUNNY    100  48  17 N8        29.95F HX  96
$$

 *****  OTHER OBSERVATIONS NORTHEAST NORTH DAKOTA  *****

CITY           SKY/WX    TMP DP  RH WIND       PRES   REMARKS
WALHALLA       FAIR      84  81  89 NW3       29.94S HX  98
LANGDON        FAIR      84  66  54 SE3       29.97S
CAVALIER       FAIR      84  66  54 SE5       29.94S
GRAFTON        FAIR      86  66  51 VRB5      29.94S
CANDO          FAIR      84  66  54 NE7       29.96S
FORT TOTTEN    NOT AVBL
ROLLA            N/A     81  63  54 NE5       29.99S
RUGBY          NOT AVBL
 ***** THE ABOVE OBSERVATIONS ARE NON NWS ARE NOT QUALITY
        CONTROLLED AND MAY MIS-REPORT RAIN FOR SNOW...
$$

 *****  OTHER OBSERVATIONS SOUTHEAST NORTH DAKOTA *****

CITY           SKY/WX    TMP DP  RH WIND       PRES   REMARKS
COOPERSTOWN    NOT AVBL
VALLEY CITY    FAIR      86  66  51 S14       29.95F
OAKES            N/A    N/A N/A N/A MISG        N/A
GWINNER        FAIR      88  64  45 S15       29.95F
SHEYENNE NWR     N/A     89  59  35 SW14      29.95S
BUFFALO          N/A     88  57  34 S8          N/A
WYNDMERE         N/A     90  63  40 S8          N/A  HX  90
 ***** THE ABOVE OBSERVATIONS ARE NON NWS ARE NOT QUALITY
       CONTROLLED AND MAY MIS-REPORT RAIN FOR SNOW...
$$

  *****  WEATHER ACROSS NORTHERN MINNESOTA  *****

CITY           SKY/WX    TMP DP  RH WIND       PRES   REMARKS
FLAG ISLAND    SUNNY     81  59  47 NW7       29.92S
WARROAD        SUNNY     81  66  61 W10       29.96R
ROSEAU         SUNNY     82  66  57 W8        29.95S
HALLOCK        SUNNY     84  64  51 CALM      29.93F
THF RVR FALLS  SUNNY     83  66  56 SW8       29.97F
HALSTAD        NOT AVBL
FOSSTON        SUNNY     84  64  51 SW7       29.98F
BAUDETTE       SUNNY     82  59  45 NW8       29.96S
WASKISH        SUNNY     81  64  57 SW8       29.97S
CROOKSTON      SUNNY     88  64  45 SW8       29.93F
$$
  *****  WEATHER ACROSS CENTRAL AND WEST MINNESOTA  *****

CITY           SKY/WX    TMP DP  RH WIND       PRES   REMARKS
BEMIDJI        SUNNY     84  63  48 W8        29.99F
PARK RAPIDS    SUNNY     85  63  47 SW10      30.00F
WADENA         SUNNY     82  66  57 SW7       30.01S
DETROIT LAKES  SUNNY     82  66  57 S9        30.00F
MOORHEAD       SUNNY     88  63  42 S7        29.94F
FERGUS FALLS   SUNNY     84  64  51 MISG      29.98F
ELBOW LAKE     FAIR      84  67  57 S10       30.00F
MORRIS MN      SUNNY     88  64  45 S9        30.00F
STAPLES        SUNNY     82  61  47 SW8       30.02S
WHEATON        SUNNY     88  66  48 S7        29.99F HX  90
$$
  *****  WEATHER ELSEWHERE ACROSS MINNESOTA  *****

CITY           SKY/WX    TMP DP  RH WIND       PRES   REMARKS
DULUTH         MOSUNNY   82  60  47 NW9       29.99F
INTRNTL FALLS  SUNNY     81  58  45 NW9       29.94F
ELY            SUNNY     79  57  47 W10       29.97S
CLOQUET        SUNNY     82  57  42 W8        29.99F
BRAINERD       SUNNY     84  61  45 W8        30.01F
HIBBING        SUNNY     80  59  48 W10       29.98F
ALEXANDRIA     SUNNY     84  64  50 SW13      30.04F
SAINT CLOUD    SUNNY     84  65  52 W10       30.02F
MINNEAPOLIS    MOSUNNY   86  62  44 NW9G17    30.02F
$$

  *****  WEATHER ACROSS SOUTH DAKOTA  *****

CITY           SKY/WX    TMP DP  RH WIND       PRES   REMARKS
SIOUX FALLS    SUNNY     84  60  44 S8        30.05F
BROOKINGS      SUNNY     83  64  52 S12       30.05F
WATERTOWN      SUNNY     87  61  41 S16       30.03F
HURON          SUNNY     90  55  30 S14G24    29.99F
SISSETON         N/A     88  60  38 SW16      29.96F
ABERDEEN       SUNNY     92  57  30 S14       29.95F HX  90
MITCHELL       SUNNY     90  56  31 S13       30.02F
PIERRE         SUNNY     96  45  17 S15G28    29.94F HX  92
MOBRIDGE       SUNNY     99  48  17 S15G25    29.90F HX  95
RAPID CITY     CLOUDY    84  57  39 S17       29.99F
$$

  *****  SOME WEATHER IN NEARBY STATES *****

CITY           SKY/WX    TMP DP  RH WIND       PRES   REMARKS
GLASGOW MT     SUNNY     91  47  21 S7G16     29.96S
GREAT FALLS MT SUNNY     90  41  18 CALM      30.04F
CHEYENNE WY    CLOUDY    86  44  23 SE12G17   30.18F
SCOTTSBLUFF NE SUNNY     91  53  27 S13       30.03F
OMAHA NE       MOSUNNY   88  65  46 NE7       30.04F HX  90
DES MOINES IA  MOSUNNY   87  59  38 NE9G22    30.02F
DAVENPORT IA   SUNNY     82  65  56 N7        30.01F
CHICAGO IL     CLOUDY    85  64  49 E10       29.97S
EAU CLAIRE WI  SUNNY     83  59  44 N9        30.01S
LA CROSSE WI   MOSUNNY   85  63  47 NW8       30.01S
$$

  *****  SOME NATIONAL WEATHER *****

CITY           SKY/WX    TMP DP  RH WIND       PRES   REMARKS
LA GUARDIA NY  LGT RAIN  78  74  87 S12       29.88R
RALEIGH NC     CLOUDY    93  75  55 S10       29.95S HX 104
ATLANTA GA     PTSUNNY   95  66  38 SW9       29.97F HX  98
NEW ORLEANS LA PTSUNNY   86  78  77 S3        29.91R THUNDER HX  98
OKLAHOMA CITY  PTSUNNY   93  73  52 SE12      29.93S THUNDER HX 102
ALBUQUERQUE NM CLOUDY    92  48  22 SE18G25   30.13S
SALT LAKE CITY MOSUNNY  100  35  10 N12       29.99F HX  94
LOS ANGELES CA MOSUNNY   79  66  64 W15       29.89F
BOISE ID       SUNNY     98  33  10 N6        29.94F HX  92
SEATTLE WA     MOSUNNY   84  61  45 W9        30.05F
$$

*** WEATHER ACROSS MANITOBA...SASKATCHEWAN AND ONTARIO ***
                ***ONTARIO***

CITY           SKY/WX    TMP DP  RH WIND       PRES   REMARKS
GERALDTON      MOSUNNY   75  59  57 W8        29.83S
THUNDER BAY    MOSUNNY   82  55  39 NW13G18   29.88F
SIOUX LOOKOUT  MOSUNNY   81  59  47 W12       29.89F
TORONTO        MOSUNNY   86  57  37 NW17      29.83R
BIG TROUT LK   LGT RAIN  70  61  73 S3        29.69F
PICKLE LAKE    MOSUNNY   79  55  44 W10       29.81F
DRYDEN         MOSUNNY   81  57  44 W15       29.91F
KENORA         MOSUNNY   81  55  41 W12       29.94S
$$
                *** MANITOBA***

CITY           SKY/WX    TMP DP  RH WIND       PRES   REMARKS
BRANDON        MOSUNNY   82  61  47 W7        29.94F
DAUPHIN        MOSUNNY   82  64  54 W13G18    29.91S
ISLAND LAKE    MOSUNNY   73  59  60 NW10G20   29.74R
PILOT MOUND      N/A    N/A N/A N/A SW2         N/A
THE PAS        MOSUNNY   77  48  36 NW15G25   29.89S
THOMPSON       PTSUNNY   70  52  52 W17G30    29.74S
WINNIPEG       MOSUNNY   81  64  57 W9        29.93S
LYNN LAKE      MOSUNNY   66  52  59 MISG      29.82R
CHURCHILL      CLOUDY    59  55  88 SE16      29.63S
GILLAM         PTSUNNY   64  57  77 N7        29.66R
$$
                ***SASKATCHEWAN***

CITY           SKY/WX    TMP DP  RH WIND       PRES   REMARKS
ESTEVAN        MOSUNNY   86  63  45 VRB5      29.97S
KINDERSLEY     MOSUNNY   77  50  38 N8        30.06F
LLOYDMINSTER   MOSUNNY   73  46  38 NW10      30.07S
PRINCE ALBERT  MOSUNNY   75  50  41 NW10      29.99S
REGINA         MOSUNNY   81  63  54 N10       30.00R
YORKTON        SUNNY     79  55  44 NW13      29.98R   C1F1C2F2C3F3C4F4C5F5C6F6C7F7C8F8C9F9CaFaCbFbCcFcCdFdCe!



USA.gov is the U.S. government's official web portal to all federal, state and local government web resources and services.